Location: Unspecified
(43.3830°N, 0.0000°E)
Time: 08:43:40
(UTC+00:00)

N. Korean satellite - Pass Details

Date: 30 November 2020
Orbit: 453 x 502 km, 97.2° (Epoch: 16 January)

Event Time Altitude Azimuth Distance (km) Brightness Sun altitude
Rises 06:09:16 0° 1° (N) 2,558 10.0 -11.2°
Reaches altitude 10° 06:11:28 10° 351° (N) 1,682 9.0 -10.8°
Maximum altitude 06:14:41 30° 289° (WNW) 899 7.3 -10.3°
Drops below altitude 10° 06:17:54 10° 227° (SW) 1,691 9.1 -9.7°
Sets 06:20:08 0° 216° (SW) 2,575 10.1 -9.3°
